Carolina, PR

10:28 PM AST on December 04, 2016 (GMT -0400)
Luis Munoz Marin International

Weather History for TJSJ - April, 2013

Change the Weather History Date:

Wednesday, April 10, 2013

  Actual Average Record
Temperature  
Mean Temperature 81 °F 80 °F  
Max Temperature 87 °F 86 °F 93 °F (1984)
Min Temperature 75 °F 74 °F 66 °F (1929)
Degree Days  
Heating Degree Days 0 0  
Month to date heating degree days 0  
Since 1 July heating degree days 0  
Cooling Degree Days 16 15  
Month to date cooling degree days 150  
Year to date cooling degree days 1332  
Growing Degree Days 31 (Base 50)    
Moisture  
Dew Point 70 °F    
Average Humidity 72    
Maximum Humidity 88    
Minimum Humidity 52    
Precipitation  
Precipitation 0.03 in 0.14 in 2.34 in (1987)
Month to date precipitation 1.20  
Year to date precipitation 9.30  
Sea Level Pressure  
Sea Level Pressure 30.01 in    
Wind  
Wind Speed 8 mph (East)    
Max Wind Speed 22 mph    
Max Gust Speed 26 mph    
Visibility 10 miles    
Events Rain    
T = Trace of Precipitation, MM = Missing Value Source: NWS Daily Summary

Daily Weather History Graph

Daily Weather History Graph

Search for Another Location

Airport or City:

Trip Planner

Search our weather history database for the weather conditions in past years. The results will help you decide how hot, cold, wet, or windy it might be!

Date:

Astronomy

Apr. 10, 2013 Rise Set
Actual Time 6:10 AM AST 6:39 PM AST
Civil Twilight 5:48 AM AST 7:01 PM AST
Nautical Twilight 5:22 AM AST 7:27 PM AST
Astronomical Twilight 4:56 AM AST 7:53 PM AST
Moon 6:08 AM AST (4/10) 7:03 PM AST (4/10)
Length of Visible Light 13h 13m
Length of Day
12h 28m
New Moon, 0% of the Moon is Illuminated
Apr 10
New Moon
Apr 18
First Quarter
Apr 25
Full
May 2
Last Quarter
May 9
New

Hourly Weather History & Observations

Time (AST) Temp. Heat Index Dew Point Humidity Pressure Visibility Wind Dir Wind Speed Gust Speed Precip Events Conditions
12:56 AM 78.1 °F - 73.0 °F 84% 30.01 in 10.0 mi Calm Calm - N/A   Mostly Cloudy
1:56 AM 77.0 °F - 72.0 °F 84% 29.99 in 10.0 mi East 5.8 mph - N/A   Mostly Cloudy
2:56 AM 77.0 °F - 72.0 °F 84% 29.97 in 10.0 mi East 3.5 mph - N/A   Scattered Clouds
3:56 AM 77.0 °F - 73.0 °F 88% 29.97 in 10.0 mi Calm Calm - 0.02 in   Mostly Cloudy
4:56 AM 75.9 °F - 72.0 °F 87% 29.98 in 10.0 mi East 5.8 mph - N/A   Scattered Clouds
5:56 AM 75.9 °F - 71.1 °F 85% 30.00 in 10.0 mi ESE 3.5 mph - 0.01 in   Scattered Clouds
6:56 AM 77.0 °F - 71.1 °F 82% 30.02 in 10.0 mi SE 3.5 mph - 0.00 in Rain Light Rain
7:56 AM 77.0 °F - 71.1 °F 82% 30.04 in 10.0 mi ESE 10.4 mph - 0.00 in Rain Light Rain
8:56 AM 81.0 °F 84.4 °F 70.0 °F 69% 30.05 in 10.0 mi ESE 11.5 mph - 0.00 in   Scattered Clouds
9:56 AM 84.0 °F 87.0 °F 68.0 °F 58% 30.06 in 10.0 mi East 11.5 mph - N/A   Scattered Clouds
10:56 AM 84.9 °F 89.4 °F 70.0 °F 61% 30.05 in 10.0 mi ENE 17.3 mph - N/A   Scattered Clouds
11:56 AM 86.0 °F 90.7 °F 70.0 °F 59% 30.04 in 10.0 mi ENE 16.1 mph 19.6 mph N/A   Scattered Clouds
12:56 PM 86.0 °F 90.7 °F 70.0 °F 59% 30.02 in 10.0 mi NE 17.3 mph 24.2 mph N/A   Scattered Clouds
1:56 PM 86.0 °F 91.5 °F 71.1 °F 61% 30.00 in 10.0 mi East 21.9 mph 26.5 mph N/A   Scattered Clouds
2:56 PM 84.9 °F 89.4 °F 70.0 °F 61% 29.98 in 10.0 mi ENE 19.6 mph - N/A   Scattered Clouds
3:56 PM 84.9 °F 88.8 °F 69.1 °F 59% 29.97 in 10.0 mi ENE 20.7 mph - N/A   Scattered Clouds
4:56 PM 82.9 °F 86.5 °F 69.1 °F 63% 29.96 in 10.0 mi ENE 19.6 mph - N/A   Scattered Clouds
5:56 PM 81.0 °F 84.4 °F 70.0 °F 69% 29.97 in 10.0 mi East 15.0 mph 19.6 mph N/A   Scattered Clouds
6:56 PM 78.1 °F - 71.1 °F 79% 29.99 in 10.0 mi East 8.1 mph - 0.01 in   Scattered Clouds
7:56 PM 79.0 °F - 70.0 °F 74% 30.01 in 10.0 mi ENE 16.1 mph 19.6 mph 0.00 in   Scattered Clouds
8:56 PM 78.1 °F - 69.1 °F 74% 30.02 in 10.0 mi East 11.5 mph - N/A   Scattered Clouds
9:56 PM 78.1 °F - 70.0 °F 76% 30.03 in 10.0 mi East 13.8 mph - N/A   Scattered Clouds
10:56 PM 78.1 °F - 68.0 °F 71% 30.04 in 10.0 mi East 8.1 mph - 0.01 in   Partly Cloudy
11:56 PM 77.0 °F - 68.0 °F 74% 30.02 in 10.0 mi East 5.8 mph - N/A   Partly Cloudy